Skip Page Navigation
NASA JPL Caltech
NASA Logo - Jet Propulsion Laboratory + View the NASA Portal
+ Center for Near-Earth Object Studies
JPL Home Earth Solar System Stars & Galaxies Technology
JPL Solar System Dynamics
BODIES ORBITS EPHEMERIDES TOOLS PHYSICAL DATA DISCOVERY FAQ SITE MAP
JPL Small-Body Database Browser
Search: [ help ]  
52324 (1992 DV9)
Classification: Main-belt Asteroid          SPK-ID: 2052324
Ephemeris | Orbit Diagram | Orbital Elements | Mission Design | Physical Parameters | Discovery Circumstances | Close-Approach Data ]

[ show orbit diagram ]
Orbital Elements at Epoch 2459000.5 (2020-May-31.0) TDB
Reference: JPL 21 (heliocentric ecliptic J2000)
 Element Value Uncertainty (1-sigma)   Units 
e .1344305997277009 2.8755e-08  
a 2.441894036697905 9.7078e-09 au
q 2.113628756873109 7.0619e-08 au
i 3.151971102072334 5.3091e-06 deg
node 202.4464887468274 6.1107e-05 deg
peri 269.9171868879937 6.715e-05 deg
M 182.8986108861087 2.6197e-05 deg
tp 2459686.158896139815
(2022-Apr-16.65889614)
0.00010314 TDB
period 1393.762092129023
3.82
8.3114e-06
2.276e-08
d
yr
n .2582937231777388 1.5403e-09 deg/d
Q 2.770159316522701 1.1013e-08 au
  Orbit Determination Parameters
   # obs. used (total)      716  
   data-arc span      10336 days (28.30 yr)  
   first obs. used      1992-02-29  
   last obs. used      2020-06-17  
   planetary ephem.      DE431  
   SB-pert. ephem.      SB431-N16  
   condition code      0  
   norm. resid. RMS      .56156  
   source      ORB  
   producer      Otto Matic  
   solution date      2020-Jun-23 22:03:33  

Additional Information
 Earth MOID = 1.13298 au 
 Jupiter MOID = 2.33449 au 
 T_jup = 3.486 
[ hide covariance matrix ]
Orbital Elements at Epoch 2457048.5 (2015-Jan-26.0) TDB
Reference: JPL 21 (heliocentric ecliptic J2000)
 Element Value Uncertainty (1-sigma)   Units 
e .1354919036303378 2.8599e-08  
q 2.10964033679885 7.0395e-08 au
tp 2456898.963125245169
(2014-Aug-29.46312525)
9.548e-05 TDB
node 202.5675078510669 6.1056e-05 deg
peri 269.3906872720373 6.7023e-05 deg
i 3.153745505681059 5.3122e-06 deg
  Orbit Determination Parameters
   # obs. used (total)      716  
   data-arc span      10336 days (28.30 yr)  
   first obs. used      1992-02-29  
   last obs. used      2020-06-17  
   planetary ephem.      DE431  
   SB-pert. ephem.      SB431-N16  
   condition code      0  
   norm. resid. RMS      .56156  
   source      ORB  
   producer      Otto Matic  
   solution date      2020-Jun-23 22:03:33  

Additional Information
 Jupiter MOID = 2.33449 au 
 T_jup = 3.486 
Orbit Covariance (6×6)
  e q tp node peri i
e 8.179159535439932E-16 -1.998856138548538E-15 5.077475767648171E-13 -4.329207206437282E-15 1.345799751847754E-13 -1.130297272655127E-15
q -1.998856138548538E-15 4.955486007985879E-15 -9.708519169716248E-13 8.451141456044001E-15 -2.504498697342844E-13 2.851074052137644E-15
tp 5.077475767648171E-13 -9.708519169716248E-13 9.116521849189501E-9 -5.214462462106959E-11 2.647332971865097E-9 -3.159879037892419E-12
node -4.329207206437282E-15 8.451141456044001E-15 -5.214462462106959E-11 3.727809722001646E-9 -3.736387370673434E-9 -7.286597757805744E-11
peri 1.345799751847754E-13 -2.504498697342844E-13 2.647332971865097E-9 -3.736387370673434E-9 4.492027333172986E-9 7.189723625631709E-11
i -1.130297272655127E-15 2.851074052137644E-15 -3.159879037892419E-12 -7.286597757805744E-11 7.189723625631709E-11 2.821927086015735E-11

Ephemeris | Orbit Diagram | Orbital Elements | Mission Design | Physical Parameters | Discovery Circumstances | Close-Approach Data ]

Physical Parameter Table
Parameter Symbol Value Units Sigma Reference Notes
absolute magnitude H 16.0   n/a MPO432080  

52324 (1992 DV9)          Discovered 1992-Feb-29 by UESAC at La Silla
Reference: 20030216/Numbers.arcLast Updated: 2004-04-19

[ show close-approach data ]
Alternate Designations
 1992 DV9 = 1996 GB 
Ephemeris | Orbit Diagram | Orbital Elements | Mission Design | Physical Parameters | Discovery Circumstances | Close-Approach Data ]
ABOUT SSD CREDITS/AWARDS PRIVACY/COPYRIGHT GLOSSARY LINKS
FirstGov 2020-Aug-06 17:28 UT
(server date/time)  
NASA Home Page
Site Manager:   Ryan S. Park
Webmaster  Alan B. Chamberlin